| time (UTC) | temp F | wind direction | speed knots | gust knots | rain 1hr in | rain 24hr in | rain mn in | humidity % | barometer mb |
| 20260507043223 | 67 | 39 | 0.0 | 0.0 | 0.00 | 0.60 | 0.60 | 99 | 1031.0 |
| 20260507042720 | 67 | 175 | 0.0 | 0.0 | 0.05 | 0.60 | 0.60 | 99 | 1031.1 |
| 20260507042214 | 67 | 178 | 0.0 | 0.0 | 0.05 | 0.60 | 0.60 | 99 | 1031.2 |
| 20260507041712 | 67 | 91 | 0.0 | 0.0 | 0.14 | 0.59 | 0.59 | 99 | 1031.7 |
| 20260507041209 | 67 | 26 | 0.0 | 0.0 | 0.26 | 0.59 | 0.59 | 99 | 1031.6 |
| 20260507040706 | 67 | 167 | 0.0 | 0.0 | 0.24 | 0.58 | 0.58 | 99 | 1031.8 |
| 20260507040202 | 67 | 346 | 0.0 | 0.0 | 0.12 | 0.55 | 0.55 | 99 | 1030.6 |
| 20260507035658 | 67 | 149 | 0.0 | 0.0 | 0.24 | 0.54 | 0.54 | 99 | 1030.6 |
| 20260507035154 | 67 | 29 | 0.0 | 0.0 | 0.28 | 0.53 | 0.53 | 99 | 1030.6 |
| 20260507034651 | 67 | 83 | 0.0 | 0.0 | 0.28 | 0.51 | 0.51 | 99 | 1030.8 |
| 20260507034148 | 67 | 16 | 0.0 | 0.0 | 0.19 | 0.48 | 0.48 | 99 | 1031.0 |
| 20260507033647 | 66 | 153 | 0.0 | 0.0 | 0.07 | 0.46 | 0.46 | 99 | 1031.0 |
| 20260507033143 | 67 | 28 | 0.0 | 0.0 | 0.07 | 0.45 | 0.45 | 99 | 1031.6 |
| 20260507032641 | 66 | 22 | 0.0 | 0.0 | 0.07 | 0.45 | 0.45 | 99 | 1030.7 |
| 20260507032137 | 67 | 17 | 0.0 | 0.0 | 0.05 | 0.44 | 0.44 | 99 | 1031.2 |
| 20260507031634 | 67 | 7 | 0.0 | 0.0 | 0.12 | 0.44 | 0.44 | 99 | 1031.8 |
| 20260507031130 | 67 | 9 | 0.0 | 0.0 | 0.12 | 0.43 | 0.43 | 99 | 1032.2 |
| 20260507030627 | 67 | 37 | 0.0 | 0.0 | 0.47 | 0.42 | 0.42 | 99 | 1032.7 |
| 20260507030125 | 67 | 154 | 0.0 | 0.9 | 0.54 | 0.41 | 0.41 | 99 | 1032.3 |
| 20260507025622 | 67 | 29 | 0.0 | 0.0 | 0.35 | 0.34 | 0.34 | 99 | 1032.2 |
| 20260507025119 | 67 | 31 | 0.0 | 0.0 | 0.31 | 0.32 | 0.32 | 99 | 1032.9 |
| 20260507024617 | 67 | 26 | 0.0 | 0.0 | 0.17 | 0.29 | 0.29 | 99 | 1032.6 |
| 20260507024114 | 67 | 26 | 0.0 | 0.0 | 0.05 | 0.27 | 0.27 | 99 | 1032.0 |
| 20260507023609 | 68 | 3 | 0.0 | 0.0 | 0.07 | 0.26 | 0.26 | 99 | 1032.0 |
| 20260507023107 | 68 | 4 | 0.0 | 0.0 | 0.12 | 0.26 | 0.26 | 99 | 1031.7 |
| 20260507022604 | 68 | 23 | 0.0 | 0.0 | 0.12 | 0.25 | 0.25 | 99 | 1031.5 |
| 20260507022059 | 68 | 38 | 0.0 | 0.0 | 0.12 | 0.24 | 0.24 | 99 | 1031.2 |
| 20260507021555 | 68 | 42 | 0.0 | 0.0 | 0.05 | 0.23 | 0.23 | 99 | 1031.5 |
| 20260507021051 | 69 | 38 | 0.0 | 0.0 | 0.00 | 0.22 | 0.22 | 99 | 1031.4 |
| 20260507020550 | 70 | 182 | 0.0 | 0.0 | 0.00 | 0.22 | 0.22 | 99 | 1031.1 |
| 20260507020045 | 71 | 169 | 0.0 | 0.0 | 0.00 | 0.22 | 0.22 | 99 | 1031.0 |
| 20260507015543 | 71 | 314 | 0.0 | 0.0 | 0.00 | 0.22 | 0.22 | 99 | 1030.8 |
| 20260507015035 | 71 | 351 | 0.0 | 0.0 | 0.00 | 0.22 | 0.22 | 99 | 1031.2 |
| 20260507014531 | 71 | 351 | 0.0 | 0.0 | 0.00 | 0.22 | 0.22 | 99 | 1031.1 |
| 20260507014027 | 71 | 350 | 0.0 | 0.0 | 0.00 | 0.22 | 0.22 | 99 | 1031.1 |
| 20260507013524 | 71 | 351 | 0.0 | 0.0 | 0.00 | 0.22 | 0.22 | 99 | 1030.8 |
| 20260507013021 | 71 | 351 | 0.0 | 0.0 | 0.00 | 0.22 | 0.22 | 99 | 1030.8 |
| 20260507012518 | 71 | 350 | 0.0 | 0.0 | 0.00 | 0.22 | 0.22 | 99 | 1030.8 |
| 20260507012014 | 71 | 351 | 0.0 | 0.0 | 0.00 | 0.22 | 0.22 | 99 | 1030.8 |
| 20260507011512 | 71 | 356 | 0.0 | 0.0 | 0.00 | 0.22 | 0.22 | 99 | 1030.9 |
| 20260507011008 | 71 | 6 | 0.0 | 0.0 | 0.00 | 0.22 | 0.22 | 99 | 1030.9 |
| 20260507010502 | 71 | 4 | 0.0 | 0.0 | 0.00 | 0.22 | 0.22 | 99 | 1030.1 |
| 20260507005959 | 71 | 4 | 0.0 | 0.0 | 0.00 | 0.22 | 0.22 | 99 | 1030.0 |
| 20260507005457 | 71 | 3 | 0.0 | 0.0 | 0.00 | 0.22 | 0.22 | 99 | 1030.1 |
| 20260507004948 | 71 | 2 | 0.0 | 0.0 | 0.00 | 0.22 | 0.22 | 99 | 1030.5 |
| 20260507004444 | 71 | 0 | 0.0 | 0.0 | 0.00 | 0.22 | 0.22 | 99 | 1031.0 |
| 20260507003942 | 71 | 347 | 0.0 | 0.0 | 0.07 | 0.22 | 0.22 | 99 | 1030.9 |
| 20260507003437 | 71 | 5 | 0.0 | 0.0 | 0.07 | 0.22 | 0.22 | 99 | 1030.9 |
| 20260507002932 | 71 | 75 | 0.0 | 0.0 | 0.00 | 0.21 | 0.21 | 99 | 1031.0 |
| 20260507002428 | 71 | 46 | 0.0 | 0.0 | 0.00 | 0.21 | 0.21 | 99 | 1030.2 |
| 20260507001925 | 71 | 347 | 0.0 | 0.0 | 0.00 | 0.21 | 0.21 | 99 | 1030.4 |
| 20260507001422 | 72 | 352 | 1.7 | 1.7 | 0.00 | 0.21 | 0.21 | 99 | 1030.4 |
| 20260507000914 | 72 | 341 | 0.0 | 0.0 | 0.00 | 0.21 | 0.21 | 99 | 1030.5 |
| 20260507000409 | 72 | 340 | 0.0 | 0.0 | 0.00 | 0.21 | 0.21 | 99 | 1031.0 |
| 20260506235905 | 72 | 354 | 0.0 | 0.0 | 0.00 | 0.21 | 0.21 | 99 | 1030.5 |
| 20260506235403 | 72 | 355 | 0.0 | 0.0 | 0.00 | 0.21 | 0.21 | 99 | 1030.6 |
| 20260506234858 | 72 | 355 | 0.0 | 0.0 | 0.00 | 0.21 | 0.21 | 99 | 1030.3 |
| 20260506234356 | 72 | 1 | 0.0 | 0.0 | 0.00 | 0.21 | 0.21 | 99 | 1030.4 |
| 20260506233854 | 72 | 349 | 0.0 | 0.0 | 0.00 | 0.21 | 0.21 | 99 | 1030.8 |
| 20260506233349 | 72 | 349 | 0.0 | 0.0 | 0.00 | 0.21 | 0.21 | 99 | 1031.4 |
| 20260506232847 | 72 | 348 | 0.0 | 0.0 | 0.00 | 0.21 | 0.21 | 99 | 1030.7 |
| 20260506232342 | 72 | 348 | 0.0 | 0.0 | 0.00 | 0.21 | 0.21 | 99 | 1031.1 |
| 20260506231839 | 72 | 358 | 0.0 | 0.0 | 0.00 | 0.21 | 0.21 | 99 | 1031.3 |
| 20260506231337 | 72 | 359 | 0.0 | 0.0 | 0.00 | 0.21 | 0.21 | 99 | 1031.5 |
| 20260506230834 | 72 | 2 | 0.0 | 0.0 | 0.00 | 0.21 | 0.21 | 99 | 1031.2 |
| 20260506230331 | 72 | 325 | 1.7 | 1.7 | 0.00 | 0.21 | 0.21 | 99 | 1031.2 |
| 20260506225827 | 72 | 358 | 0.0 | 0.0 | 0.00 | 0.21 | 0.21 | 99 | 1031.7 |
| 20260506225324 | 72 | 356 | 0.0 | 0.0 | 0.00 | 0.21 | 0.21 | 99 | 1031.3 |
| 20260506224821 | 72 | 348 | 0.0 | 0.0 | 0.00 | 0.21 | 0.21 | 99 | 1031.3 |
| 20260506224319 | 72 | 347 | 0.0 | 0.0 | 0.00 | 0.21 | 0.21 | 99 | 1031.1 |
| 20260506223815 | 72 | 346 | 1.7 | 1.7 | 0.00 | 0.21 | 0.21 | 99 | 1031.2 |
| 20260506223310 | 72 | 348 | 0.9 | 0.9 | 0.00 | 0.21 | 0.21 | 99 | 1030.7 |
| 20260506222807 | 72 | 346 | 0.0 | 0.0 | 0.00 | 0.21 | 0.21 | 99 | 1031.0 |
| 20260506222305 | 72 | 347 | 0.0 | 0.0 | 0.00 | 0.21 | 0.21 | 99 | 1031.2 |
| 20260506221800 | 72 | 353 | 0.0 | 0.0 | 0.00 | 0.21 | 0.21 | 99 | 1031.2 |
| 20260506221258 | 72 | 356 | 0.0 | 0.0 | 0.00 | 0.21 | 0.21 | 99 | 1030.9 |
| 20260506220755 | 72 | 6 | 0.0 | 0.0 | 0.00 | 0.21 | 0.21 | 99 | 1031.1 |
| 20260506220249 | 72 | 351 | 0.0 | 0.0 | 0.00 | 0.21 | 0.21 | 99 | 1031.3 |
| 20260506215747 | 72 | 351 | 0.0 | 0.0 | 0.00 | 0.21 | 0.21 | 99 | 1031.3 |
| 20260506215242 | 71 | 351 | 0.0 | 0.0 | 0.00 | 0.21 | 0.21 | 99 | 1031.2 |
| 20260506214734 | 71 | 352 | 0.0 | 0.0 | 0.00 | 0.21 | 0.21 | 99 | 1031.2 |
| 20260506214231 | 71 | 347 | 0.9 | 1.7 | 0.00 | 0.21 | 0.21 | 99 | 1031.3 |
| 20260506213729 | 71 | 8 | 0.9 | 1.7 | 0.05 | 0.21 | 0.21 | 99 | 1031.4 |
| 20260506213226 | 72 | 3 | 0.9 | 0.9 | 0.05 | 0.21 | 0.21 | 99 | 1031.3 |
| 20260506212722 | 72 | 346 | 1.7 | 1.7 | 0.07 | 0.20 | 0.20 | 99 | 1031.6 |
| 20260506212218 | 72 | 336 | 0.9 | 1.7 | 0.07 | 0.20 | 0.20 | 99 | 1031.5 |
| 20260506211708 | 72 | 2 | 0.0 | 0.0 | 0.07 | 0.20 | 0.20 | 99 | 1031.6 |
| 20260506211204 | 72 | 6 | 0.0 | 0.0 | 0.00 | 0.19 | 0.19 | 99 | 1031.4 |
| 20260506210701 | 72 | 341 | 0.0 | 0.0 | 0.07 | 0.19 | 0.19 | 98 | 1031.8 |
| 20260506210158 | 72 | 3 | 0.0 | 0.0 | 0.35 | 0.19 | 0.19 | 97 | 1032.0 |
| 20260506205656 | 72 | 4 | 0.0 | 0.0 | 0.94 | 0.18 | 0.18 | 97 | 1031.7 |
| 20260506205156 | 73 | 344 | 0.9 | 0.9 | 0.83 | 0.14 | 0.14 | 95 | 1031.5 |
| 20260506204648 | 73 | 5 | 0.0 | 0.0 | 0.12 | 0.02 | 0.02 | 92 | 1031.8 |
| 20260506204145 | 74 | 6 | 0.0 | 0.0 | 0.00 | 0.00 | 0.00 | 91 | 1031.8 |
| 20260506203643 | 74 | 26 | 0.0 | 0.0 | 0.00 | 0.00 | 0.00 | 91 | 1031.8 |
| 20260506203140 | 74 | 16 | 0.0 | 0.0 | 0.00 | 0.00 | 0.00 | 90 | 1031.6 |
| 20260506202638 | 74 | 356 | 0.9 | 1.7 | 0.00 | 0.00 | 0.00 | 90 | 1031.5 |
| 20260506202133 | 74 | 343 | 1.7 | 1.7 | 0.00 | 0.00 | 0.00 | 90 | 1031.7 |
| 20260506201631 | 74 | 8 | 0.0 | 0.0 | 0.00 | 0.00 | 0.00 | 89 | 1031.8 |
| 20260506201127 | 74 | 9 | 0.0 | 0.0 | 0.00 | 0.00 | 0.00 | 89 | 1032.0 |
| 20260506200624 | 75 | 350 | 0.9 | 0.9 | 0.00 | 0.00 | 0.00 | 89 | 1031.9 |
| 20260506200121 | 75 | 324 | 0.9 | 0.9 | 0.00 | 0.00 | 0.00 | 89 | 1032.0 |
| 20260506195617 | 75 | 341 | 0.9 | 1.7 | 0.00 | 0.00 | 0.00 | 88 | 1032.1 |
| 20260506195113 | 75 | 3 | 0.0 | 0.0 | 0.00 | 0.00 | 0.00 | 88 | 1032.0 |
| 20260506194611 | 75 | 12 | 0.0 | 0.0 | 0.00 | 0.00 | 0.00 | 88 | 1032.3 |
| 20260506194107 | 76 | 339 | 0.0 | 0.9 | 0.00 | 0.00 | 0.00 | 87 | 1032.3 |
| 20260506193600 | 76 | 13 | 0.0 | 0.0 | 0.00 | 0.00 | 0.00 | 86 | 1032.7 |
| 20260506193057 | 76 | 4 | 0.0 | 0.0 | 0.00 | 0.00 | 0.00 | 86 | 1032.8 |
| 20260506192553 | 76 | 352 | 0.0 | 0.0 | 0.00 | 0.00 | 0.00 | 85 | 1032.6 |
| 20260506192049 | 76 | 29 | 0.0 | 0.0 | 0.00 | 0.00 | 0.00 | 86 | 1032.8 |
| 20260506191546 | 76 | 11 | 0.0 | 0.0 | 0.00 | 0.00 | 0.00 | 86 | 1033.0 |
| 20260506191042 | 75 | 342 | 0.0 | 0.0 | 0.00 | 0.00 | 0.00 | 86 | 1032.8 |
| 20260506190539 | 75 | 352 | 0.9 | 0.9 | 0.00 | 0.00 | 0.00 | 86 | 1032.8 |
| 20260506190036 | 75 | 348 | 0.0 | 0.0 | 0.00 | 0.00 | 0.00 | 86 | 1033.1 |
| 20260506185533 | 75 | 5 | 0.0 | 0.0 | 0.00 | 0.00 | 0.00 | 86 | 1032.9 |
| 20260506185029 | 75 | 6 | 0.0 | 0.0 | 0.00 | 0.00 | 0.00 | 86 | 1033.1 |
| 20260506184527 | 76 | 0 | 0.0 | 0.0 | 0.00 | 0.00 | 0.00 | 85 | 1033.1 |
| 20260506184024 | 76 | 102 | 0.9 | 1.7 | 0.00 | 0.00 | 0.00 | 84 | 1033.1 |
| 20260506183519 | 76 | 22 | 0.0 | 0.0 | 0.00 | 0.00 | 0.00 | 85 | 1032.9 |
| 20260506183016 | 76 | 331 | 1.7 | 2.6 | 0.00 | 0.00 | 0.00 | 84 | 1033.0 |
| 20260506182514 | 76 | 329 | 0.9 | 1.7 | 0.00 | 0.00 | 0.00 | 84 | 1033.4 |
| 20260506182010 | 77 | 312 | 0.9 | 1.7 | 0.00 | 0.00 | 0.00 | 84 | 1033.2 |
| 20260506181509 | 76 | 209 | 0.0 | 0.0 | 0.00 | 0.00 | 0.00 | 84 | 1033.2 |
| 20260506181006 | 76 | 347 | 1.7 | 1.7 | 0.00 | 0.00 | 0.00 | 84 | 1033.3 |
| 20260506180502 | 76 | 3 | 0.0 | 0.0 | 0.00 | 0.00 | 0.00 | 85 | 1033.2 |
| 20260506175958 | 76 | 27 | 0.0 | 0.0 | 0.00 | 0.00 | 0.00 | 85 | 1033.3 |
| 20260506175455 | 76 | 70 | 0.0 | 0.0 | 0.00 | 0.00 | 0.00 | 85 | 1033.3 |
| 20260506174952 | 76 | 2 | 0.0 | 0.9 | 0.00 | 0.00 | 0.00 | 84 | 1033.1 |
| 20260506174450 | 76 | 18 | 0.0 | 0.0 | 0.00 | 0.00 | 0.00 | 84 | 1033.2 |
| 20260506173946 | 76 | 352 | 0.0 | 0.0 | 0.00 | 0.00 | 0.00 | 83 | 1033.5 |
| 20260506173444 | 76 | 1 | 1.7 | 1.7 | 0.00 | 0.00 | 0.00 | 83 | 1033.2 |
| 20260506172940 | 76 | 10 | 0.0 | 0.9 | 0.00 | 0.00 | 0.00 | 83 | 1033.5 |
| 20260506172437 | 76 | 345 | 0.9 | 1.7 | 0.00 | 0.00 | 0.00 | 83 | 1033.4 |
| 20260506171928 | 76 | 14 | 0.9 | 1.7 | 0.00 | 0.00 | 0.00 | 82 | 1033.6 |
| 20260506171426 | 76 | 42 | 0.0 | 0.0 | 0.00 | 0.00 | 0.00 | 83 | 1033.5 |
| 20260506170918 | 76 | 333 | 1.7 | 1.7 | 0.00 | 0.00 | 0.00 | 82 | 1033.5 |
| 20260506170414 | 76 | 30 | 0.0 | 0.9 | 0.00 | 0.00 | 0.00 | 81 | 1033.6 |
| 20260506165913 | 76 | 25 | 0.0 | 0.9 | 0.00 | 0.00 | 0.00 | 80 | 1033.3 |
| 20260506165410 | 76 | 3 | 0.0 | 0.9 | 0.00 | 0.00 | 0.00 | 82 | 1033.4 |
| 20260506164906 | 76 | 354 | 1.7 | 2.6 | 0.00 | 0.00 | 0.00 | 81 | 1033.5 |
| 20260506164403 | 76 | 357 | 0.0 | 0.0 | 0.00 | 0.00 | 0.00 | 82 | 1033.5 |
| 20260506163901 | 76 | 359 | 0.0 | 0.9 | 0.00 | 0.00 | 0.00 | 82 | 1033.7 |
| 20260506163356 | 76 | 9 | 0.0 | 0.0 | 0.00 | 0.00 | 0.00 | 81 | 1033.6 |
| 20260506162850 | 77 | 48 | 0.0 | 0.0 | 0.00 | 0.00 | 0.00 | 80 | 1033.7 |
| 20260506162349 | 78 | 305 | 0.9 | 1.7 | 0.00 | 0.00 | 0.00 | 78 | 1033.4 |
| 20260506161841 | 78 | 358 | 0.0 | 0.0 | 0.00 | 0.00 | 0.00 | 81 | 1033.4 |
| 20260506161338 | 77 | 10 | 0.0 | 0.0 | 0.00 | 0.00 | 0.00 | 79 | 1033.2 |
| 20260506160835 | 77 | 12 | 0.0 | 0.0 | 0.00 | 0.00 | 0.00 | 80 | 1033.4 |
| 20260506160331 | 76 | 18 | 0.0 | 0.0 | 0.00 | 0.00 | 0.00 | 82 | 1033.6 |
| 20260506155830 | 76 | 331 | 1.7 | 1.7 | 0.00 | 0.00 | 0.00 | 82 | 1033.4 |
| 20260506155327 | 76 | 23 | 0.0 | 0.0 | 0.00 | 0.00 | 0.00 | 81 | 1033.2 |
| 20260506153439 | 75 | 25 | 0.0 | 0.0 | 0.00 | 0.00 | 0.00 | 83 | 1033.5 |
| 20260506152937 | 74 | 345 | 0.0 | 0.9 | 0.00 | 0.00 | 0.00 | 83 | 1033.4 |
| 20260506152433 | 74 | 320 | 0.9 | 0.9 | 0.00 | 0.00 | 0.00 | 83 | 1033.7 |
| 20260506151932 | 74 | 351 | 0.0 | 0.0 | 0.00 | 0.00 | 0.00 | 83 | 1033.7 |
| 20260506151429 | 74 | 339 | 0.9 | 1.7 | 0.00 | 0.00 | 0.00 | 83 | 1033.7 |
| 20260506150927 | 74 | 1 | 0.0 | 0.0 | 0.00 | 0.00 | 0.00 | 84 | 1033.9 |
| 20260506150422 | 73 | 17 | 0.0 | 0.0 | 0.00 | 0.00 | 0.00 | 84 | 1033.7 |
| 20260506145920 | 73 | 3 | 0.0 | 0.0 | 0.00 | 0.00 | 0.00 | 84 | 1033.6 |
| 20260506145416 | 73 | 17 | 0.0 | 0.0 | 0.00 | 0.00 | 0.00 | 85 | 1033.7 |
| 20260506144913 | 73 | 325 | 1.7 | 2.6 | 0.00 | 0.00 | 0.00 | 85 | 1033.8 |
| 20260506144409 | 73 | 5 | 0.9 | 0.9 | 0.00 | 0.00 | 0.00 | 86 | 1033.8 |
| 20260506143908 | 72 | 354 | 0.9 | 0.9 | 0.00 | 0.00 | 0.00 | 86 | 1034.0 |
| 20260506143405 | 72 | 348 | 0.0 | 0.0 | 0.00 | 0.00 | 0.00 | 87 | 1033.9 |
| 20260506142903 | 72 | 8 | 0.0 | 0.0 | 0.00 | 0.00 | 0.00 | 87 | 1033.8 |
| 20260506142401 | 71 | 15 | 0.0 | 0.0 | 0.00 | 0.00 | 0.00 | 88 | 1033.7 |
| 20260506141859 | 71 | 356 | 1.7 | 1.7 | 0.00 | 0.00 | 0.00 | 88 | 1033.5 |
| 20260506141356 | 71 | 7 | 0.0 | 0.0 | 0.00 | 0.00 | 0.00 | 89 | 1034.1 |
| 20260506140854 | 71 | 18 | 0.0 | 0.0 | 0.00 | 0.00 | 0.00 | 89 | 1033.6 |
| 20260506140351 | 70 | 304 | 1.7 | 2.6 | 0.00 | 0.00 | 0.00 | 89 | 1033.5 |
| 20260506135848 | 70 | 346 | 0.9 | 0.9 | 0.00 | 0.00 | 0.00 | 91 | 1033.6 |
| 20260506135345 | 70 | 29 | 0.0 | 0.0 | 0.00 | 0.00 | 0.00 | 91 | 1033.6 |
| 20260506134841 | 70 | 356 | 0.0 | 0.0 | 0.00 | 0.00 | 0.00 | 91 | 1033.8 |
| 20260506134337 | 69 | 8 | 0.0 | 0.9 | 0.00 | 0.00 | 0.00 | 91 | 1034.0 |
| 20260506133835 | 69 | 12 | 0.0 | 0.0 | 0.00 | 0.00 | 0.00 | 91 | 1034.2 |
| 20260506133331 | 69 | 334 | 0.0 | 0.9 | 0.00 | 0.00 | 0.00 | 92 | 1033.9 |
| 20260506132828 | 69 | 4 | 1.7 | 2.6 | 0.00 | 0.00 | 0.00 | 92 | 1034.2 |
| 20260506132325 | 68 | 13 | 0.0 | 0.9 | 0.00 | 0.00 | 0.00 | 92 | 1034.2 |
| 20260506131823 | 68 | 358 | 1.7 | 1.7 | 0.00 | 0.00 | 0.00 | 92 | 1034.1 |
| 20260506131319 | 68 | 18 | 0.0 | 0.0 | 0.00 | 0.00 | 0.00 | 93 | 1034.2 |
| 20260506130817 | 68 | 19 | 0.0 | 0.0 | 0.00 | 0.00 | 0.00 | 93 | 1034.3 |
| 20260506130313 | 68 | 345 | 0.0 | 0.0 | 0.00 | 0.00 | 0.00 | 93 | 1034.4 |
| 20260506125811 | 68 | 350 | 0.9 | 0.9 | 0.00 | 0.00 | 0.00 | 93 | 1034.2 |
| 20260506125309 | 68 | 343 | 0.0 | 0.0 | 0.00 | 0.00 | 0.00 | 93 | 1034.1 |
| 20260506124807 | 68 | 354 | 0.0 | 0.9 | 0.00 | 0.00 | 0.00 | 93 | 1033.9 |
| 20260506124304 | 68 | 352 | 0.0 | 0.0 | 0.00 | 0.00 | 0.00 | 93 | 1034.1 |
| 20260506123801 | 68 | 348 | 0.0 | 0.0 | 0.00 | 0.00 | 0.00 | 93 | 1034.0 |
| 20260506123300 | 67 | 14 | 1.7 | 1.7 | 0.00 | 0.00 | 0.00 | 93 | 1034.0 |
| 20260506122756 | 67 | 7 | 0.0 | 0.0 | 0.00 | 0.00 | 0.00 | 93 | 1033.8 |
| 20260506122253 | 67 | 272 | 0.9 | 2.6 | 0.00 | 0.00 | 0.00 | 93 | 1033.8 |
| 20260506121751 | 67 | 318 | 2.6 | 2.6 | 0.00 | 0.00 | 0.00 | 93 | 1033.6 |
| 20260506121248 | 67 | 5 | 0.0 | 0.0 | 0.00 | 0.00 | 0.00 | 92 | 1033.9 |
| 20260506120745 | 67 | 8 | 0.0 | 0.0 | 0.00 | 0.00 | 0.00 | 92 | 1033.5 |
| 20260506120243 | 67 | 4 | 0.0 | 0.0 | 0.00 | 0.00 | 0.00 | 92 | 1033.3 |
| 20260506115740 | 67 | 2 | 0.0 | 0.0 | 0.00 | 0.00 | 0.00 | 92 | 1033.4 |
| 20260506115239 | 67 | 351 | 0.0 | 0.9 | 0.00 | 0.00 | 0.00 | 92 | 1032.9 |
| 20260506114736 | 67 | 28 | 0.0 | 0.0 | 0.00 | 0.00 | 0.00 | 92 | 1033.1 |
| 20260506114234 | 66 | 6 | 0.0 | 0.0 | 0.00 | 0.00 | 0.00 | 92 | 1033.0 |
| 20260506113732 | 66 | 7 | 0.0 | 0.0 | 0.00 | 0.00 | 0.00 | 92 | 1033.3 |
| 20260506113229 | 66 | 0 | 0.0 | 0.0 | 0.00 | 0.00 | 0.00 | 92 | 1032.8 |
| 20260506112725 | 66 | 1 | 0.0 | 0.9 | 0.00 | 0.00 | 0.00 | 92 | 1032.7 |
| 20260506112223 | 66 | 319 | 0.9 | 2.6 | 0.00 | 0.00 | 0.00 | 91 | 1032.6 |
| 20260506111720 | 66 | 1 | 1.7 | 1.7 | 0.00 | 0.00 | 0.00 | 91 | 1032.6 |
| 20260506111218 | 66 | 12 | 0.0 | 0.0 | 0.00 | 0.00 | 0.00 | 91 | 1032.7 |
| 20260506110715 | 66 | 11 | 0.0 | 0.0 | 0.00 | 0.00 | 0.00 | 91 | 1032.8 |
| 20260506110213 | 66 | 3 | 0.0 | 0.0 | 0.00 | 0.00 | 0.00 | 91 | 1032.7 |
| 20260506105709 | 66 | 359 | 0.0 | 0.0 | 0.00 | 0.00 | 0.00 | 91 | 1032.5 |
| 20260506105206 | 66 | 356 | 0.0 | 0.0 | 0.00 | 0.00 | 0.00 | 91 | 1032.5 |
| 20260506104704 | 66 | 1 | 0.0 | 0.0 | 0.00 | 0.00 | 0.00 | 91 | 1032.3 |
| 20260506104201 | 66 | 355 | 0.0 | 0.0 | 0.00 | 0.00 | 0.00 | 91 | 1032.4 |
| 20260506103658 | 66 | 11 | 0.0 | 0.0 | 0.00 | 0.00 | 0.00 | 90 | 1032.6 |
| 20260506103155 | 66 | 359 | 0.9 | 1.7 | 0.00 | 0.00 | 0.00 | 90 | 1032.3 |
| 20260506102653 | 66 | 7 | 0.0 | 0.0 | 0.00 | 0.00 | 0.00 | 90 | 1032.1 |
| 20260506102151 | 66 | 12 | 0.0 | 0.0 | 0.00 | 0.00 | 0.00 | 90 | 1032.2 |
| 20260506101647 | 66 | 3 | 0.9 | 1.7 | 0.00 | 0.00 | 0.00 | 90 | 1032.3 |
| 20260506101144 | 66 | 0 | 0.0 | 0.0 | 0.00 | 0.00 | 0.00 | 90 | 1032.1 |
| 20260506100643 | 66 | 2 | 0.0 | 0.0 | 0.00 | 0.00 | 0.00 | 90 | 1032.0 |
| 20260506100140 | 66 | 4 | 0.9 | 0.9 | 0.00 | 0.00 | 0.00 | 90 | 1031.7 |
| 20260506095639 | 67 | 352 | 0.0 | 0.0 | 0.00 | 0.00 | 0.00 | 89 | 1031.9 |
| 20260506095135 | 67 | 358 | 0.9 | 0.9 | 0.00 | 0.00 | 0.00 | 89 | 1031.9 |
| 20260506094632 | 67 | 1 | 0.0 | 0.0 | 0.00 | 0.00 | 0.00 | 89 | 1031.8 |
| 20260506094130 | 67 | 344 | 0.0 | 0.0 | 0.00 | 0.00 | 0.00 | 89 | 1031.8 |
| 20260506093629 | 67 | 351 | 0.0 | 0.0 | 0.00 | 0.00 | 0.00 | 89 | 1031.6 |
| 20260506093125 | 67 | 358 | 0.9 | 1.7 | 0.00 | 0.00 | 0.00 | 89 | 1031.4 |
| 20260506092623 | 67 | 6 | 0.0 | 0.9 | 0.00 | 0.00 | 0.00 | 88 | 1031.4 |
| 20260506092120 | 67 | 1 | 0.9 | 0.9 | 0.00 | 0.00 | 0.00 | 88 | 1031.3 |
| 20260506091618 | 67 | 350 | 0.0 | 0.0 | 0.00 | 0.00 | 0.00 | 88 | 1031.4 |
| 20260506091114 | 67 | 345 | 0.0 | 0.0 | 0.00 | 0.00 | 0.00 | 87 | 1031.5 |
| 20260506090613 | 67 | 2 | 0.0 | 0.0 | 0.00 | 0.00 | 0.00 | 87 | 1031.5 |
| 20260506085600 | 67 | 6 | 0.0 | 0.0 | 0.00 | 0.00 | 0.00 | 87 | 1031.0 |
| 20260506085056 | 67 | 2 | 1.7 | 1.7 | 0.00 | 0.00 | 0.00 | 87 | 1030.9 |
| 20260506084553 | 67 | 357 | 0.0 | 0.0 | 0.00 | 0.00 | 0.00 | 87 | 1031.1 |
| 20260506084049 | 67 | 3 | 0.0 | 0.9 | 0.00 | 0.00 | 0.00 | 87 | 1031.0 |
| 20260506083547 | 67 | 354 | 0.0 | 0.0 | 0.00 | 0.00 | 0.00 | 87 | 1031.0 |
| 20260506083044 | 67 | 347 | 0.9 | 1.7 | 0.00 | 0.00 | 0.00 | 86 | 1031.2 |
| 20260506082541 | 67 | 8 | 0.0 | 0.0 | 0.00 | 0.00 | 0.00 | 86 | 1031.1 |
| 20260506082036 | 67 | 329 | 0.9 | 1.7 | 0.00 | 0.00 | 0.00 | 86 | 1031.1 |
| 20260506081535 | 67 | 7 | 0.0 | 0.0 | 0.00 | 0.00 | 0.00 | 86 | 1031.1 |
| 20260506081032 | 67 | 4 | 0.0 | 0.0 | 0.00 | 0.00 | 0.00 | 86 | 1031.3 |
| 20260506080530 | 67 | 7 | 0.0 | 0.0 | 0.00 | 0.00 | 0.00 | 85 | 1031.2 |
| 20260506073513 | 68 | 335 | 0.9 | 1.7 | 0.00 | 0.00 | 0.00 | 83 | 1031.3 |
| 20260506073010 | 68 | 334 | 1.7 | 1.7 | 0.00 | 0.00 | 0.00 | 83 | 1031.1 |
| 20260506072507 | 68 | 358 | 0.0 | 0.0 | 0.00 | 0.00 | 0.00 | 83 | 1031.0 |
| 20260506072005 | 68 | 351 | 0.9 | 0.9 | 0.00 | 0.00 | 0.00 | 83 | 1031.1 |
| 20260506071503 | 68 | 9 | 0.9 | 1.7 | 0.00 | 0.00 | 0.00 | 83 | 1031.2 |
| 20260506071000 | 68 | 11 | 0.9 | 0.9 | 0.00 | 0.00 | 0.00 | 82 | 1031.2 |
| 20260506070457 | 68 | 2 | 1.7 | 1.7 | 0.00 | 0.00 | 0.00 | 82 | 1031.4 |
| 20260506062434 | 69 | 358 | 0.9 | 1.7 | 0.00 | 0.00 | 0.00 | 81 | 1031.7 |
| 20260506061930 | 69 | 336 | 0.0 | 1.7 | 0.00 | 0.00 | 0.00 | 81 | 1031.9 |
| 20260506061427 | 69 | 350 | 0.9 | 1.7 | 0.00 | 0.00 | 0.00 | 80 | 1031.9 |
| 20260506060925 | 69 | 11 | 0.0 | 0.9 | 0.00 | 0.00 | 0.00 | 81 | 1031.9 |
| 20260506060423 | 69 | 352 | 0.9 | 0.9 | 0.00 | 0.00 | 0.00 | 80 | 1032.0 |
| 20260506051354 | 69 | 1 | 1.7 | 1.7 | 0.00 | 0.00 | 0.00 | 79 | 1031.9 |
| 20260506050852 | 69 | 359 | 1.7 | 2.6 | 0.00 | 0.00 | 0.00 | 78 | 1032.0 |
| 20260506050349 | 69 | 10 | 0.9 | 1.7 | 0.00 | 0.00 | 0.00 | 78 | 1031.9 |
| 20260506044839 | 69 | 356 | 1.7 | 1.7 | 0.00 | 0.00 | 0.00 | 78 | 1031.8 |
| 20260506044338 | 70 | 356 | 1.7 | 1.7 | 0.00 | 0.00 | 0.00 | 77 | 1031.7 |
| 20260506043834 | 70 | 344 | 0.9 | 0.9 | 0.00 | 0.00 | 0.00 | 77 | 1031.7 |